Weather History for Jamestown, NY

Change the Weather History Date:

Thursday, April 24, 2014

  Actual Average Record
Temperature  
Mean Temperature 38 °F -  
Max Temperature 50 °F 61 °F 87 °F (1985)
Min Temperature 26 °F 34 °F 18 °F (1986)
Degree Days  
Heating Degree Days 27    
Moisture  
Dew Point 17 °F    
Average Humidity 43    
Maximum Humidity 74    
Minimum Humidity 26    
Precipitation  
Precipitation 0.00 in - - ()
Sea Level Pressure  
Sea Level Pressure 30.07 in    
Wind  
Wind Speed 8 mph (NNW)    
Max Wind Speed 12 mph    
Max Gust Speed -    
Visibility 10 miles    
Events      
Averages and records for this station are not official NWS values.
T = Trace of Precipitation, MM = Missing Value Source: NWS Daily Summary

Daily Weather History Graph

Daily Weather History Graph

Search for Another Location

Airport:

Trip Planner

Search our weather history database for the weather conditions in past years. The results will help you decide how hot, cold, wet, or windy it might be!

Date:

Astronomy

Apr. 24, 2014 Rise Set
Actual Time 6:22 AM EDT 8:08 PM EDT
Civil Twilight 5:52 AM EDT 8:38 PM EDT
Nautical Twilight 5:16 AM EDT 9:14 PM EDT
Astronomical Twilight 4:37 AM EDT 9:53 PM EDT
Moon 3:38 AM EDT (4/24) 3:16 PM EDT (4/24)
Length of Visible Light 14h 45m
Length of Day
13h 45m
Waning Crescent, 24% of the Moon is Illuminated
Apr 24
Waning Crescent
Apr 29
New
May 6
First Quarter
May 14
Full
May 21
Last Quarter

Hourly Weather History & Observations

Time (EDT) Temp. Windchill Dew Point Humidity Pressure Visibility Wind Dir Wind Speed Gust Speed Precip Events Conditions
12:15 AM 33.8 °F 25.3 °F 21.2 °F 60% 30.05 in 10.0 mi NW 11.5 mph - N/A   Clear
12:35 AM 33.8 °F 26.4 °F 21.2 °F 60% 30.05 in 10.0 mi NW 9.2 mph - N/A   Clear
12:55 AM 33.8 °F 27.7 °F 21.2 °F 60% 30.06 in 10.0 mi NW 6.9 mph - N/A   Clear
1:15 AM 32.0 °F 25.6 °F 21.2 °F 64% 30.06 in 10.0 mi WNW 6.9 mph - N/A   Clear
1:35 AM 32.0 °F 26.4 °F 21.2 °F 64% 30.06 in 10.0 mi NW 5.8 mph - N/A   Clear
1:55 AM 30.2 °F 24.3 °F 21.2 °F 69% 30.06 in 10.0 mi WNW 5.8 mph - N/A   Clear
2:15 AM 30.2 °F 23.4 °F 21.2 °F 69% 30.06 in 10.0 mi WNW 6.9 mph - N/A   Clear
2:35 AM 30.2 °F 23.4 °F 19.4 °F 64% 30.06 in 10.0 mi WNW 6.9 mph - N/A   Clear
2:55 AM 28.4 °F 21.2 °F 19.4 °F 69% 30.06 in 10.0 mi West 6.9 mph - N/A   Clear
3:15 AM 30.2 °F 22.6 °F 17.6 °F 60% 30.05 in 10.0 mi WNW 8.1 mph - N/A   Clear
3:35 AM 30.2 °F 23.4 °F 17.6 °F 60% 30.05 in 10.0 mi NW 6.9 mph - N/A   Clear
3:55 AM 30.2 °F 22.6 °F 17.6 °F 60% 30.05 in 10.0 mi NW 8.1 mph - N/A   Clear
4:15 AM 30.2 °F 22.6 °F 17.6 °F 60% 30.05 in 10.0 mi WNW 8.1 mph - N/A   Clear
4:35 AM 30.2 °F 23.4 °F 15.8 °F 55% 30.06 in 10.0 mi NW 6.9 mph - N/A   Clear
4:55 AM 30.2 °F 22.6 °F 15.8 °F 55% 30.05 in 10.0 mi NW 8.1 mph - N/A   Clear
5:15 AM 30.2 °F 22.6 °F 15.8 °F 55% 30.06 in 10.0 mi NNW 8.1 mph - N/A   Clear
5:35 AM 30.2 °F 23.4 °F 15.8 °F 55% 30.07 in 10.0 mi NW 6.9 mph - N/A   Clear
5:55 AM 30.2 °F 23.4 °F 17.6 °F 60% 30.08 in 10.0 mi NW 6.9 mph - N/A   Clear
6:15 AM 30.2 °F 22.6 °F 15.8 °F 55% 30.09 in 10.0 mi NNW 8.1 mph - N/A   Clear
6:35 AM 30.2 °F 23.4 °F 15.8 °F 55% 30.09 in 10.0 mi NW 6.9 mph - N/A   Clear
6:55 AM 30.2 °F 23.4 °F 17.6 °F 60% 30.11 in 10.0 mi NW 6.9 mph - N/A   Clear
7:15 AM 30.2 °F 23.4 °F 17.6 °F 60% 30.11 in 10.0 mi NNW 6.9 mph - N/A   Clear
7:35 AM 32.0 °F 25.6 °F 17.6 °F 55% 30.11 in 10.0 mi NW 6.9 mph - N/A   Clear
7:55 AM 26.6 °F 20.0 °F 19.4 °F 74% 30.11 in 10.0 mi NNW 5.8 mph - N/A   Clear
8:15 AM 33.8 °F 27.7 °F 17.6 °F 52% 30.12 in 10.0 mi NW 6.9 mph - N/A   Clear
8:35 AM 33.8 °F 28.6 °F 17.6 °F 52% 30.13 in 10.0 mi NW 5.8 mph - N/A   Clear
8:55 AM 35.6 °F 28.6 °F 19.4 °F 52% 30.13 in 10.0 mi WNW 9.2 mph - N/A   Clear
9:15 AM 35.6 °F 31.7 °F 19.4 °F 52% 30.13 in 10.0 mi NW 4.6 mph - N/A   Clear
9:35 AM 37.4 °F 31.4 °F 17.6 °F 45% 30.14 in 10.0 mi North 8.1 mph - N/A   Clear
9:55 AM 37.4 °F 32.1 °F 15.8 °F 41% 30.14 in 10.0 mi NNW 6.9 mph - N/A   Clear
10:15 AM 39.2 °F 33.6 °F 17.6 °F 42% 30.14 in 10.0 mi WNW 8.1 mph - N/A   Clear
10:35 AM 39.2 °F 35.9 °F 15.8 °F 39% 30.15 in 10.0 mi WNW 4.6 mph - N/A   Clear
10:55 AM 39.2 °F 32.0 °F 15.8 °F 39% 30.14 in 10.0 mi NW 11.5 mph - N/A   Clear
11:15 AM 41.0 °F 37.1 °F 15.8 °F 36% 30.14 in 10.0 mi NW 5.8 mph - N/A   Clear
11:35 AM 42.8 °F 37.5 °F 15.8 °F 34% 30.13 in 10.0 mi NE 9.2 mph - N/A   Clear
11:55 AM 42.8 °F 38.0 °F 14.0 °F 31% 30.14 in 10.0 mi NNW 8.1 mph - N/A   Clear
12:15 PM 42.8 °F 39.3 °F 14.0 °F 31% 30.13 in 10.0 mi NNE 5.8 mph - N/A   Clear
12:35 PM 41.0 °F 34.7 °F 15.8 °F 36% 30.13 in 10.0 mi NW 10.4 mph - N/A   Clear
12:55 PM 42.8 °F 38.6 °F 15.8 °F 34% 30.12 in 10.0 mi North 6.9 mph - N/A   Clear
1:15 PM 44.6 °F 41.4 °F 15.8 °F 31% 30.12 in 10.0 mi North 5.8 mph - N/A   Clear
1:35 PM 44.6 °F 40.2 °F 17.6 °F 34% 30.11 in 10.0 mi NNW 8.1 mph - N/A   Clear
1:55 PM 46.4 °F 41.1 °F 17.6 °F 32% 30.10 in 10.0 mi NNW 11.5 mph - N/A   Clear
2:15 PM 46.4 °F 42.4 °F 17.6 °F 32% 30.09 in 10.0 mi NE 8.1 mph - N/A   Clear
2:35 PM 46.4 °F 42.9 °F 17.6 °F 32% 30.08 in 10.0 mi NNE 6.9 mph - N/A   Clear
2:55 PM 46.4 °F 43.5 °F 17.6 °F 32% 30.07 in 10.0 mi North 5.8 mph - N/A   Clear
3:15 PM 48.2 °F - 19.4 °F 32% 30.07 in 10.0 mi WNW 10.4 mph - N/A   Clear
3:35 PM 48.2 °F - 19.4 °F 32% 30.07 in 10.0 mi WNW 4.6 mph - N/A   Clear
3:55 PM 48.2 °F - 19.4 °F 32% 30.06 in 10.0 mi NNW 9.2 mph - N/A   Clear
4:15 PM 48.2 °F - 19.4 °F 32% 30.05 in 10.0 mi North 4.6 mph - N/A   Clear
4:35 PM 50.0 °F - 17.6 °F 28% 30.05 in 10.0 mi NNW 6.9 mph - N/A   Clear
4:55 PM 50.0 °F - 17.6 °F 28% 30.05 in 10.0 mi NNW 3.5 mph - N/A   Clear
5:15 PM 50.0 °F - 17.6 °F 28% 30.04 in 10.0 mi North 10.4 mph - N/A   Clear
5:35 PM 50.0 °F - 15.8 °F 26% 30.04 in 10.0 mi NW 8.1 mph - N/A   Clear
5:55 PM 50.0 °F - 15.8 °F 26% 30.04 in 10.0 mi North 5.8 mph - N/A   Clear
6:15 PM 50.0 °F - 15.8 °F 26% 30.04 in 10.0 mi North 5.8 mph - N/A   Clear
6:35 PM 48.2 °F - 15.8 °F 27% 30.04 in 10.0 mi North 5.8 mph - N/A   Clear
6:55 PM 48.2 °F - 17.6 °F 30% 30.04 in 10.0 mi North 5.8 mph - N/A   Clear
7:15 PM 48.2 °F - 15.8 °F 27% 30.03 in 10.0 mi NE 8.1 mph - N/A   Clear
7:35 PM 46.4 °F 42.4 °F 17.6 °F 32% 30.03 in 10.0 mi NE 8.1 mph - N/A   Clear
7:55 PM 46.4 °F 42.4 °F 17.6 °F 32% 30.03 in 10.0 mi NE 8.1 mph - N/A   Clear
8:15 PM 44.6 °F 40.2 °F 17.6 °F 34% 30.03 in 10.0 mi NE 8.1 mph - N/A   Clear
8:35 PM 44.6 °F 41.4 °F 15.8 °F 31% 30.02 in 10.0 mi ENE 5.8 mph - N/A   Clear
8:55 PM 44.6 °F 41.4 °F 15.8 °F 31% 30.03 in 10.0 mi NE 5.8 mph - N/A   Clear
9:15 PM 42.8 °F 39.3 °F 17.6 °F 36% 30.03 in 10.0 mi NNE 5.8 mph - N/A   Clear
9:35 PM 42.8 °F 38.6 °F 15.8 °F 34% 30.03 in 10.0 mi NE 6.9 mph - N/A   Clear
9:55 PM 42.8 °F 37.5 °F 15.8 °F 34% 30.02 in 10.0 mi NE 9.2 mph - N/A   Clear
10:15 PM 42.8 °F 37.0 °F 15.8 °F 34% 30.01 in 10.0 mi ENE 10.4 mph - N/A   Clear
10:35 PM 42.8 °F 38.6 °F 17.6 °F 36% 30.00 in 10.0 mi ENE 6.9 mph - N/A   Clear
10:55 PM 42.8 °F 37.0 °F 17.6 °F 36% 30.00 in 10.0 mi ENE 10.4 mph - N/A   Clear
11:15 PM 42.8 °F 38.0 °F 17.6 °F 36% 29.99 in 10.0 mi ENE 8.1 mph - N/A   Clear
11:35 PM 42.8 °F 38.0 °F 17.6 °F 36% 29.98 in 10.0 mi ENE 8.1 mph - N/A   Clear
11:55 PM 42.8 °F 38.0 °F 17.6 °F 36% 29.98 in 10.0 mi East 8.1 mph - N/A   Partly Cloudy